星链-32039 (STARLINK-32039)

导读

STARLINK-32039是美国SpaceX公司星链(Starlink)星座中的一颗卫星,于2024年8月20日发射升空。它属于星链第二代卫星组网项目,运行在近地轨道,采用相控阵天线、星间链路等先进技术,能够为全球偏远、网络基础设施欠发达地区提供低时延、高速的宽带卫星互联网接入服务,是SpaceX构建全球覆盖卫星互联网计划的组成部分,进一步扩充了星链星座的规模。

基本信息
目录编号:
60604
目录名称:
STARLINK-32039
国际标识:
2024-150X
轨道中心:
EARTH
卫星名称:
星链-32039 (STARLINK-32039)
卫星全名:
星链-32039 (STARLINK-32039)
卫星状态:
在轨 (已飞行666 天)
发射日期:
2024-08-20 UTC
国别 :
美国 (US)
星等 :
--
轨道信息
数据来源 国际轨道数据 AOE轨道数据
星历时间 2026-06-17T18:21:57+0800
12小时前
查看轨道信息
2026-06-17T07:00:00+0800
23小时前
查看轨道信息
半长轴 6853.392km 6853.404km
偏心率 0.0001204 0.0001353
轨道倾角 53.159° 53.158°
近地点辐角 81.309° 68.216°
升交点赤经 206.484° 208.684°
平近点角 278.805° 201.682°
近地点 474.429km 474.339km
远地点 476.081km 476.195km
周期 94.106分钟 94.106分钟
每日圈数 15.301867 15.301828
详细信息
卫星平台:
Starlink v2.0 mini
运营商:
太空探索技术公司
运营商所在国:
美国
制造商(研发单位):
太空探索技术公司
制造商所在国:
美国
使用方式:
暂无
卫星简介
星链(Starlink)计划是由太空探索技术公司(SpaceX)提出的一个巨型低轨卫星互联网星座项目,计划在2019年至2024年间在太空搭建由约1.2万颗卫星组成的“星链”网络,其中1584颗将部署在地球上空550千米处的近地轨道,并从2020年开始工作。该卫星仍在工作。
2D轨道图
3D轨道图
轨道高度分析图
轨道倾角分析图
轨道综合分析图
查看轨道综合分析图